Location: Madrid
(40.4000°N, 3.6830°W)
Time: 00:04:45
(UTC+02:00)

ISS - Pass Details

Date: 07 August 2020
Orbit: 418 x 420 km, 51.6° (Epoch: 08 August)

Event Time Altitude Azimuth Distance (km) Brightness Sun altitude
Rises 22:02:06 0° 285° (WNW) 2,364 2.0 -7.7°
Reaches altitude 10° 22:06:02 10° 239° (WSW) 1,494 -0.5 -8.4°
Maximum altitude 22:06:25 10° 232° (SW) 1,484 -0.7 -8.4°
Drops below altitude 10° 22:06:49 10° 226° (SW) 1,493 -0.7 -8.5°
Sets 22:10:43 0° 179° (S) 2,349 -0.3 -9.1°
